Weather History for KTVC - April, 2014

Change the Weather History Date:

Wednesday, April 9, 2014

  Actual Average Record
Temperature  
Mean Temperature 41 °F 40 °F  
Max Temperature 54 °F 51 °F 75 °F (1945)
Min Temperature 27 °F 30 °F 9 °F (1972)
Degree Days  
Heating Degree Days 24 25  
Month to date heating degree days 243 237  
Since 1 July heating degree days 7296 6639  
Cooling Degree Days 0 0  
Month to date cooling degree days 0 0  
Year to date cooling degree days 0 0  
Moisture  
Dew Point 24 °F    
Average Humidity 58    
Maximum Humidity 85    
Minimum Humidity 30    
Precipitation  
Precipitation 0.00 in 0.09 in 0.69 in (1983)
Month to date precipitation 0.52 0.82  
Year to date precipitation 2.86 7.00  
Sea Level Pressure  
Sea Level Pressure 29.87 in    
Wind  
Wind Speed 7 mph (SW)    
Max Wind Speed 18 mph    
Max Gust Speed 27 mph    
Visibility 10 miles    
Events      
T = Trace of Precipitation, MM = Missing Value Source: NWS Daily Summary

Daily Weather History Graph

Daily Weather History Graph

Search for Another Location

Airport or City:

Trip Planner

Search our weather history database for the weather conditions in past years. The results will help you decide how hot, cold, wet, or windy it might be!

Date:

Astronomy

Apr. 09, 2014 Rise Set
Actual Time 7:08 AM EDT 8:19 PM EDT
Civil Twilight 6:38 AM EDT 8:50 PM EDT
Nautical Twilight 6:02 AM EDT 9:26 PM EDT
Astronomical Twilight 5:24 AM EDT 10:04 PM EDT
Moon 2:55 PM EDT (4/9) 4:10 AM EDT (4/9)
Length of Visible Light 14h 11m
Length of Day
13h 11m
Waxing Gibbous, 71% of the Moon is Illuminated
Apr 9
Waxing Gibbous
Apr 15
Full
Apr 22
Last Quarter
Apr 29
New
May 6
First Quarter

Hourly Weather History & Observations

Time (EDT) Temp. Windchill Dew Point Humidity Pressure Visibility Wind Dir Wind Speed Gust Speed Precip Events Conditions
12:53 AM 30.9 °F - 25.0 °F 79% 29.91 in - Calm Calm - N/A   Clear
1:53 AM 28.9 °F - 25.0 °F 85% 29.92 in - Calm Calm - N/A   Clear
2:53 AM 28.9 °F - 24.1 °F 82% 29.92 in - Calm Calm - N/A   Clear
3:53 AM 28.0 °F - 23.0 °F 81% 29.92 in - Calm Calm - N/A   Clear
4:53 AM 28.0 °F - 23.0 °F 81% 29.92 in - Calm Calm - N/A   Clear
5:40 AM 27.0 °F - 23.0 °F 85% 29.90 in 10.0 mi Calm Calm - N/A   Partly Cloudy
5:53 AM 28.0 °F 24.2 °F 21.9 °F 78% 29.92 in 10.0 mi SSW 3.5 mph - N/A   Partly Cloudy
6:53 AM 28.0 °F - 21.9 °F 78% 29.94 in 10.0 mi Calm Calm - N/A   Clear
8:53 AM 36.0 °F - 24.1 °F 62% 29.96 in 10.0 mi Calm Calm - N/A   Clear
9:53 AM 42.1 °F 38.4 °F 23.0 °F 47% 29.97 in 10.0 mi WSW 5.8 mph - N/A   Clear
10:53 AM 46.0 °F 41.4 °F 24.1 °F 42% 29.97 in 10.0 mi WSW 9.2 mph - N/A   Scattered Clouds
11:53 AM 48.0 °F - 24.1 °F 39% 29.98 in 10.0 mi West 17.3 mph 23.0 mph N/A   Mostly Cloudy
12:53 PM 48.9 °F - 23.0 °F 36% 29.95 in 10.0 mi West 16.1 mph 20.7 mph N/A   Mostly Cloudy
1:53 PM 48.9 °F - 23.0 °F 36% 29.94 in 10.0 mi SW 8.1 mph 18.4 mph N/A   Mostly Cloudy
2:53 PM 52.0 °F - 23.0 °F 32% 29.92 in 10.0 mi SW 13.8 mph 23.0 mph N/A   Mostly Cloudy
3:53 PM 53.1 °F - 25.0 °F 34% 29.88 in 10.0 mi WSW 9.2 mph 21.9 mph N/A   Scattered Clouds
4:53 PM 53.1 °F - 24.1 °F 32% 29.86 in 10.0 mi SW 11.5 mph - N/A   Mostly Cloudy
5:53 PM 52.0 °F - 24.1 °F 34% 29.83 in 10.0 mi SSW 9.2 mph 19.6 mph N/A   Mostly Cloudy
6:53 PM 52.0 °F - 25.0 °F 35% 29.80 in 10.0 mi South 8.1 mph - N/A   Mostly Cloudy
7:53 PM 51.1 °F - 21.9 °F 32% 29.78 in 10.0 mi SSW 8.1 mph 19.6 mph N/A   Mostly Cloudy
8:53 PM 50.0 °F - 21.9 °F 33% 29.77 in 10.0 mi South 6.9 mph - N/A   Mostly Cloudy
9:53 PM 48.9 °F - 25.0 °F 39% 29.77 in 10.0 mi Variable 3.5 mph - N/A   Scattered Clouds
10:53 PM 48.9 °F - 27.0 °F 43% 29.73 in 10.0 mi SSW 10.4 mph 17.3 mph N/A   Scattered Clouds
11:31 PM 48.9 °F - 28.0 °F 44% 29.70 in 10.0 mi SSW 12.7 mph 23.0 mph N/A   Scattered Clouds
11:53 PM 50.0 °F - 28.0 °F 43% 29.70 in - SSW 10.4 mph 24.2 mph N/A   Mostly Cloudy